DELTA 1 DEB, 10719

Orbit data source: Space-Track

DELTA 1 DEB, 10719 is space debris in SSO originally from a launch on Thu, 29 Jul 1976 UTC launched from the Air Force Western Test Range (AFWTR). Debris objects in space refer to the collection of defunct objects orbiting the Earth. Examples of debris include non-operational satellites, rocket bodies, and fragments generated from explosions, collisions, or faulty payload assembly.

Loading next visibility...
Identifier
10719, 1976-077AQ
Orbit
SSO
Country
Flag of USUS
Related business
Manufacturer
Unknown
Mission
Spacecraft
Bus & Motor
Unknown
Mass
Unknown
Launch date (UTC)
1976-07-29 (50 years ago)
Launch vehicle
Unknown
Launch site
Air Force Western Test Range (AFWTR)
Object type
Payload
Rocket body
Debris
Shape & HBR
Unknown shape, 0.1 m
Radar Cross Section
Medium (>0.1 m² and <1 m²)

Expand to show TLE details & history
Last TLE update: 3 days ago

TLE from 3 days ago
0 DELTA 1 DEB
1 10719U 76077AQ  26170.97010034 -.00000050  00000-0 -13471-3 0  9991
2 10719 101.8741 179.6405 0242938  85.5450 305.6026 12.01422487181686
Epoch: 2026-06-19T23:16Z
TLE epoch observation values (Epoch: 2026-06-19T23:16:56.669Z)
Latitude
28.21305°
Longitude
-84.2323°
Altitude
1,566.93 km
Speed
7.135 km/s
True Right ascension
11h 32m 46s
True Declination
28° 05' 05"
Sunlit
Object was in daylight at epoch
Visualization orbit readout
Latitude
Unknown
Longitude
Unknown
Altitude
Unknown
Speed
Unknown
Apparent Right ascension
Unknown
Apparent Declination
Unknown
Sunlit
N/A
Visualization observer readout
Local Sidereal Time
05:24:44
Azimuth
Unknown
Elevation
Unknown
Doppler factor
Unknown
Orbital elements
Apogee altitude
1,867.685 km
Perigee altitude
1,476.543 km
Semi-major axis
8,050.251 km
Eccentricity
0.02429
Inclination
101.8741°
RAAN
179.6405°
Arg. of periapsis
85.545°
True anomaly
303.29903°
Mean anomaly
305.6026°
Eccentric anomaly
304.45485°
Mean motion
3.00489 °/min
Orbital period
119.8 mins
BSTAR
-0.00013471
Loading maneuver chart data...
Computing Atmospheric mass density...
Loading historical data...
Loading historical data...
Loading historical data...
Loading historical data...
Loading historical data...
Loading historical data...
Loading historical data...

Documentation

Showing up to 5 results
|